RH
62 46 44 50 34 23 19 18 17 16 16 16 18 18 14 7 4 4 10 13 12 12 7 3 3 3 4 4 5 5 6 6 6 6 7 7 7 7 8 8 8 8 9
53 40 43 43 28 23 20 18 18 17 18 18 20 18 13 7 4 6 13 13 13 11 5 3 3 3 4 5 6 6 6 6 6 6 7 7 7 7 8 8 8 9 9
46 38 41 36 27 22 21 19 19 18 19 20 20 15 10 6 5 9 15 14 14 15 8 3 3 3 4 6 6 6 6 6 7 7 8 8 8 8 8 8 9 11 12
42 42 40 32 25 24 21 19 20 19 20 20 17 12 8 6 6 14 15 14 16 17 12 4 3 4 6 6 6 7 8 8 8 9 10 10 10 10 10 10 11 12 14
39 41 34 29 28 25 22 21 20 20 21 20 19 12 7 6 10 15 14 15 18 16 6 4 5 6 7 8 11 12 13 13 13 13 13 13 13 14 13 13 14 14 16
36 33 32 31 27 24 23 22 22 22 21 22 18 10 7 8 15 16 15 17 16 7 5 6 8 9 12 14 15 18 18 18 18 18 17 17 17 17 18 18 18 20 21
37 35 31 27 26 25 25 24 23 22 23 23 17 9 9 14 17 16 17 17 9 6 7 9 12 16 17 19 20 22 22 22 22 22 22 22 22 22 23 24 24 21 18
33 29 29 28 27 27 25 23 22 22 24 24 12 10 16 17 17 18 18 10 6 8 11 15 18 20 21 24 24 25 24 22 22 23 24 23 24 24 25 24 23 16 14
34 29 26 26 26 25 23 22 22 22 24 16 11 17 17 17 19 20 10 7 10 15 18 20 22 24 25 25 22 20 20 18 17 16 15 14 14 13 14 14 15 15 10
30 30 27 26 24 22 22 20 22 24 16 12 18 18 18 20 19 8 8 12 17 20 22 24 26 24 21 19 17 15 14 12 9 7 6 5 4 5 5 5 5 6 6
23 26 25 24 22 22 20 19 22 15 13 18 18 19 21 10 7 8 11 15 18 20 24 24 21 19 17 16 14 12 10 9 10 10 10 10 10 10 10 11 11 11 10
22 22 24 23 21 19 18 21 16 16 18 19 22 16 8 8 9 10 12 15 20 23 23 20 19 18 17 16 16 17 17 17 16 14 14 14 14 15 16 17 18 18 18
19 21 20 18 17 20 20 17 19 19 20 22 12 12 12 11 11 12 15 21 24 22 20 20 21 21 21 22 24 24 22 20 20 22 25 28 27 26 24 23 23 23 23
15 16 16 18 20 20 21 20 20 23 20 14 14 13 11 11 14 20 25 24 22 22 23 24 25 27 29 30 30 29 28 28 29 32 33 31 27 26 27 26 24 20 18
18 20 20 21 23 23 20 21 24 21 16 18 17 13 12 18 25 26 25 24 24 25 27 29 31 32 32 32 32 31 31 31 34 37 35 30 30 29 24 18 13 8 7
22 23 24 25 23 22 23 26 23 21 26 25 17 14 22 28 28 26 26 26 27 29 31 32 33 33 33 33 33 34 35 38 39 34 30 26 18 10 6 4 3 3 3
29 26 24 24 25 27 28 27 24 30 31 25 18 24 30 30 28 28 28 29 30 31 33 34 34 34 35 36 39 41 40 33 29 21 12 8 5 4 3 2 3 3 5
22 23 25 26 28 31 30 28 32 36 33 21 22 30 32 31 30 31 32 32 33 34 35 36 37 38 42 45 41 32 29 20 9 6 5 4 3 3 4 4 5 7 7
21 25 28 30 32 33 32 35 39 39 29 22 30 33 33 32 33 34 35 35 36 37 38 41 44 47 45 33 28 14 7 7 5 4 3 3 3 5 8 10 9 8 9
18 20 23 28 31 35 38 42 43 37 24 30 35 35 34 35 38 39 39 39 41 42 45 50 49 36 29 14 7 5 5 4 4 4 3 4 6 10 14 16 17 15 14
22 21 24 27 34 40 44 46 42 26 32 35 36 36 38 41 42 43 43 44 47 51 51 39 31 18 7 6 4 4 4 4 3 3 4 6 11 12 15 19 21 22 23
23 21 24 36 42 45 46 41 29 34 35 36 38 40 44 46 46 46 48 53 54 42 30 18 8 6 5 4 4 4 4 5 5 4 5 8 15 20 22 24 28 29 26
27 31 39 43 46 47 33 33 33 36 38 40 44 47 48 48 50 54 56 46 29 16 7 6 6 5 4 4 4 5 6 7 7 9 13 18 22 26 28 32 40 36 26
31 36 42 43 34 32 32 37 40 42 44 47 49 50 52 56 58 48 29 16 6 6 6 5 5 4 4 4 5 6 7 11 18 24 26 27 31 38 43 46 48 40 26
27 28 30 32 34 37 41 44 46 48 51 53 55 58 59 47 32 18 8 6 5 5 5 5 6 6 4 7 10 17 26 32 36 40 37 35 41 48 53 54 47 34 27
32 34 36 38 42 45 47 50 53 55 58 61 59 45 32 20 9 8 7 5 5 5 6 7 8 8 11 16 26 34 38 43 49 48 49 54 58 56 49 40 30 26 33
Wind_Speed
34 32 33 32 29 24 21 20 16 13 13 13 11 12 13 14 14 14 14 14 14 16 16 15 14 14 16 16 17 17 17 18 17 17 16 17 19 21 21 21 21 20 21
35 33 32 31 28 24 22 18 17 13 12 15 12 14 13 14 14 14 15 15 15 17 17 17 16 16 17 18 18 18 19 19 20 20 21 21 22 20 21 22 23 23 23
33 32 33 32 28 24 22 18 16 13 13 14 14 15 13 15 15 15 15 15 16 19 19 18 17 18 19 20 20 20 21 20 21 23 23 24 24 25 24 23 22 24 25
33 33 33 30 26 24 21 19 14 14 13 14 15 16 15 15 15 16 16 16 18 21 22 20 18 18 20 22 22 22 22 22 23 24 25 26 26 27 27 27 27 26 25
30 32 31 27 26 23 21 17 15 13 14 15 16 17 15 16 16 17 17 18 20 22 21 19 18 19 22 24 24 23 23 24 24 25 25 26 27 28 30 29 28 32 32
31 31 29 28 26 23 20 16 15 14 15 16 17 17 16 16 17 17 18 20 20 21 20 19 20 22 25 24 23 24 25 26 26 27 28 28 28 28 30 32 31 33 29
30 29 29 27 25 21 18 16 15 15 16 17 18 18 16 18 18 18 20 22 22 22 20 20 22 24 25 24 24 26 27 28 28 29 28 29 29 30 32 35 34 36 32
28 27 26 25 23 20 18 17 16 17 18 18 19 17 16 17 20 20 22 22 23 23 22 22 23 25 25 26 27 28 29 29 28 27 28 28 28 29 30 32 35 36 36
27 27 27 25 22 19 18 18 18 19 19 18 19 16 17 19 21 22 23 23 23 23 23 23 26 27 28 29 29 27 27 25 25 25 26 27 28 29 31 33 34 39 42
27 28 26 23 20 19 19 19 20 20 18 18 17 17 19 21 23 23 23 23 23 23 24 26 27 28 28 27 26 25 25 25 26 27 27 28 30 30 32 33 34 37 42
26 26 24 21 21 20 21 21 20 18 16 18 18 18 20 22 22 23 23 24 24 24 26 26 25 24 24 24 25 25 25 25 26 28 29 28 32 32 34 36 37 38 40
25 23 22 22 22 22 22 21 18 16 19 18 18 19 21 22 23 24 24 24 24 24 24 23 23 23 23 25 27 28 29 30 30 31 33 33 35 36 37 39 41 43 43
24 23 24 24 24 22 20 17 16 19 18 18 19 20 22 23 23 23 23 23 22 21 21 21 22 23 25 27 29 31 32 33 34 35 36 38 40 42 43 45 48 49 51
22 23 23 23 21 19 16 17 19 18 17 18 20 21 22 22 22 22 21 20 20 20 21 22 24 26 28 30 33 35 36 37 38 40 41 42 43 46 47 49 51 53 55
22 21 21 19 17 16 17 19 17 17 17 19 20 21 21 21 20 19 19 20 20 21 23 24 26 29 32 35 38 41 42 43 43 43 45 46 48 49 50 51 52 52 54
19 18 17 16 17 18 18 17 16 17 18 20 21 21 20 19 19 20 20 21 22 24 26 29 31 33 36 40 42 45 46 46 46 48 48 49 50 50 50 50 50 51 52
15 16 15 16 17 17 17 15 16 18 20 21 21 20 19 20 20 21 22 24 25 28 30 33 36 38 40 42 43 45 47 49 50 51 51 51 51 51 51 50 50 49 48
15 16 16 17 16 15 15 17 19 20 21 21 20 20 20 21 22 23 25 27 29 32 35 37 40 43 43 43 44 48 51 52 52 52 52 52 52 50 50 51 50 49 49
13 14 16 15 14 16 18 19 20 21 21 20 20 21 22 23 24 25 27 30 33 36 39 42 43 43 44 47 49 51 52 53 53 53 52 52 52 51 50 52 54 53 50
13 14 14 15 17 18 19 20 20 22 20 20 21 22 23 24 26 28 31 34 37 40 42 43 43 46 49 50 51 51 54 55 56 56 55 54 52 51 50 50 51 52 51
16 16 17 18 18 19 20 21 22 20 20 22 22 23 24 25 28 30 34 38 40 42 43 45 48 49 50 51 50 50 52 54 57 57 57 56 55 53 51 50 50 50 49
17 19 18 17 19 20 21 21 19 21 21 22 23 23 25 28 31 35 37 39 41 44 47 49 49 50 50 51 51 53 54 55 58 59 58 58 57 55 54 53 51 48 46
17 17 18 18 19 20 19 18 20 21 22 22 23 25 28 31 34 37 39 41 44 47 48 50 52 53 53 53 54 55 56 57 58 59 59 58 56 53 51 48 46 44 43
13 13 15 15 16 17 19 20 21 21 21 23 26 28 30 32 35 38 42 45 46 49 50 51 53 54 55 54 54 55 56 57 57 56 55 53 51 48 46 42 39 39 40
9 9 11 14 17 19 19 20 19 20 22 24 27 29 31 34 38 41 43 45 46 48 50 51 53 54 55 53 54 55 56 55 54 54 53 51 48 44 41 37 35 36 37
11 14 15 17 17 18 18 19 20 21 23 25 28 32 35 38 40 43 45 44 46 47 48 48 49 50 51 53 52 51 50 49 48 49 48 44 41 39 37 37 36 36 37
Wind_Direction
214 213 213 210 209 210 214 219 222 227 241 255 264 278 281 286 292 301 307 304 306 306 303 301 304 306 306 303 302 304 301 300 301 301 299 296 295 293 294 292 291 291 293
214 215 212 208 207 209 215 218 226 229 244 257 270 277 283 284 292 300 303 301 303 302 301 300 301 304 301 299 299 300 298 298 299 299 298 297 293 290 288 291 293 294 294
214 215 209 206 205 209 216 220 227 235 248 264 274 279 284 286 293 299 296 297 299 299 301 301 300 300 299 297 299 300 300 299 298 298 299 298 297 295 293 290 293 295 297
208 208 205 205 205 212 216 224 229 238 252 266 276 279 281 287 291 293 292 295 296 299 301 303 301 300 297 298 300 300 301 300 298 297 298 298 298 298 298 299 297 296 297
201 201 203 203 209 213 220 226 233 243 254 267 275 278 283 287 290 288 290 292 298 299 300 301 301 298 297 298 300 302 302 300 298 297 296 295 296 298 299 299 300 301 301
197 200 203 207 211 216 223 229 237 245 257 269 274 280 283 286 284 285 292 294 298 297 297 299 298 297 296 299 300 301 299 298 298 299 299 299 299 298 298 298 297 295 296
202 204 207 211 214 219 228 233 239 248 260 269 277 278 282 281 282 289 291 292 294 292 294 297 300 299 300 302 302 301 300 299 301 301 300 299 299 299 298 299 300 300 299
204 206 208 213 217 224 230 238 242 253 261 272 274 273 275 282 285 289 290 292 293 295 298 302 304 303 303 301 302 303 302 302 302 300 298 298 298 297 296 297 298 297 296
206 209 210 214 222 227 233 236 250 258 266 270 269 274 278 281 284 287 290 292 293 297 303 307 305 302 302 304 304 303 302 303 303 302 301 300 298 298 297 297 298 299 300
211 210 212 216 221 223 232 245 253 262 265 266 267 271 277 281 284 288 291 292 296 303 306 305 302 303 304 305 307 307 307 308 306 305 303 303 301 301 300 299 299 298 299
209 209 213 218 217 227 241 250 256 259 263 262 266 275 280 282 286 290 292 294 300 305 304 303 303 304 306 306 306 305 304 303 302 302 302 303 300 301 300 298 297 295 295
210 212 215 217 227 237 244 248 252 256 255 261 271 276 281 285 290 291 294 299 303 303 302 302 303 305 305 305 305 306 307 308 308 307 305 304 300 299 298 297 296 296 295
208 212 218 225 232 235 239 243 248 249 257 265 273 280 286 290 291 293 296 300 300 299 298 297 300 304 306 307 307 307 307 307 306 305 304 304 302 302 302 300 298 296 295
205 210 214 219 225 230 236 241 244 253 261 271 280 286 288 290 291 294 297 294 293 292 296 301 303 304 305 306 306 305 305 304 304 304 303 302 301 300 299 298 297 296 295
202 206 213 218 224 229 235 241 249 258 270 280 287 289 288 289 293 292 289 288 290 294 297 299 302 305 307 306 305 305 304 304 304 303 303 302 301 300 298 296 294 292 290
207 212 216 219 226 232 238 244 255 269 280 287 287 287 290 292 288 287 287 289 292 295 298 302 304 306 306 306 306 305 305 305 305 304 303 301 300 298 296 295 293 291 291
207 215 217 221 226 233 241 254 266 277 283 286 288 290 289 286 286 286 288 291 295 298 300 303 305 306 306 306 305 304 305 305 305 305 305 304 303 302 300 297 294 293 292
204 211 216 224 230 240 252 263 272 280 287 291 290 288 287 287 287 289 291 293 297 300 302 305 307 308 308 306 306 306 307 307 308 308 307 307 305 303 299 297 296 295 295
213 217 224 231 240 251 260 269 278 287 292 291 288 288 289 288 289 290 294 297 299 303 306 307 307 307 308 309 310 310 308 308 308 307 307 307 305 304 303 301 300 300 300
236 241 245 246 249 257 267 275 283 291 290 289 290 289 287 289 292 294 296 300 305 306 306 307 309 310 311 311 311 311 310 309 307 306 307 305 304 302 302 302 303 303 305
244 246 243 248 256 261 269 278 287 289 288 289 288 289 290 291 294 299 304 305 305 307 307 309 313 312 312 311 312 310 308 307 306 306 305 305 303 302 301 301 301 302 302
241 244 247 250 256 265 274 283 285 287 290 291 290 290 293 297 301 303 305 306 307 309 311 311 312 312 311 310 310 310 310 310 308 307 306 304 303 302 300 298 298 298 298
238 243 246 252 260 268 276 285 288 289 288 288 291 296 300 301 303 306 307 309 311 311 312 311 311 312 313 313 313 311 310 309 308 307 306 305 304 302 299 298 296 296 296
233 238 244 255 265 276 283 285 287 288 291 296 297 298 301 304 306 309 311 312 313 312 313 314 313 313 314 314 311 310 308 307 306 306 305 306 306 306 304 302 298 296 298
235 246 259 269 275 280 284 286 289 292 293 296 301 304 306 309 310 311 311 311 313 315 315 316 316 316 314 314 312 311 310 310 309 309 309 309 310 309 308 306 302 301 300
256 263 271 275 279 283 286 287 291 296 300 303 307 310 311 310 309 309 310 312 312 313 315 316 315 313 312 311 311 310 309 307 307 308 310 312 312 311 309 308 306 304 304